QPF
0.02 0.02 0.02 0.04 0.05 0.05 0.04 0.04 0.05 0.04 0.03 0.02 0.01 0.01 0.01 0.01 0.03 0.03 0.02 0.02 0.04 0.06 0.07 0.05 0.02 0.01 0.02 0.03 0.05 0.05 0.05 0.04 0.03 0.05 0.08 0.09 0.11 0.09 0.08 0.09 0.09 0.10 0.11
0.02 0.02 0.04 0.06 0.05 0.08 0.06 0.04 0.03 0.03 0.03 0.02 0.01 0.01 0.01 0.01 0.02 0.03 0.01 0.02 0.03 0.05 0.07 0.07 0.04 0.02 0.01 0.02 0.03 0.04 0.05 0.04 0.03 0.05 0.06 0.07 0.09 0.08 0.09 0.09 0.10 0.13 0.14
0.03 0.04 0.05 0.08 0.08 0.07 0.07 0.05 0.02 0.01 0.02 0.02 0.03 0.02 0.02 0.02 0.01 0.01 0.03 0.04 0.04 0.06 0.08 0.09 0.06 0.03 0.02 0.01 0.02 0.03 0.05 0.04 0.03 0.04 0.04 0.05 0.05 0.06 0.09 0.07 0.07 0.08 0.09
0.05 0.05 0.05 0.07 0.10 0.08 0.08 0.05 0.02 0.01 0.03 0.04 0.03 0.03 0.02 0.03 0.02 0.03 0.04 0.06 0.05 0.06 0.08 0.10 0.08 0.04 0.03 0.03 0.02 0.03 0.04 0.03 0.02 0.03 0.04 0.04 0.05 0.05 0.05 0.06 0.05 0.05 0.06
0.08 0.06 0.05 0.06 0.09 0.08 0.08 0.07 0.03 0.02 0.03 0.03 0.03 0.03 0.04 0.04 0.04 0.05 0.06 0.06 0.04 0.05 0.08 0.10 0.12 0.08 0.05 0.04 0.03 0.02 0.03 0.03 0.02 0.02 0.04 0.06 0.05 0.04 0.04 0.03 0.03 0.03 0.04
0.02 0.02 0.04 0.05 0.09 0.09 0.08 0.08 0.06 0.04 0.04 0.03 0.03 0.03 0.04 0.06 0.05 0.06 0.07 0.06 0.04 0.04 0.06 0.08 0.11 0.11 0.08 0.06 0.04 0.03 0.02 0.02 0.02 0.02 0.03 0.05 0.04 0.03 0.03 0.02 0.01 0.02 0.03
0.01 0.01 0.04 0.06 0.12 0.12 0.10 0.07 0.06 0.04 0.04 0.04 0.05 0.04 0.04 0.05 0.05 0.06 0.06 0.06 0.05 0.04 0.03 0.04 0.06 0.08 0.09 0.07 0.05 0.03 0.02 0.02 0.02 0.02 0.02 0.03 0.05 0.04 0.04 0.04 0.03 0.02 0.02
0.01 0.01 0.03 0.04 0.07 0.08 0.10 0.08 0.05 0.05 0.05 0.04 0.04 0.04 0.04 0.04 0.04 0.04 0.04 0.05 0.04 0.04 0.03 0.03 0.04 0.06 0.07 0.08 0.07 0.05 0.03 0.02 0.02 0.02 0.01 0.02 0.06 0.07 0.05 0.05 0.05 0.04 0.02
0.02 0.02 0.03 0.05 0.06 0.08 0.11 0.10 0.07 0.08 0.09 0.12 0.11 0.08 0.05 0.06 0.07 0.06 0.04 0.04 0.04 0.04 0.03 0.02 0.03 0.03 0.05 0.07 0.07 0.06 0.03 0.02 0.03 0.02 0.02 0.03 0.05 0.05 0.05 0.06 0.05 0.03 0.02
0.04 0.03 0.04 0.06 0.08 0.08 0.09 0.13 0.10 0.07 0.08 0.10 0.09 0.07 0.07 0.08 0.08 0.08 0.05 0.03 0.02 0.02 0.02 0.02 0.02 0.02 0.04 0.06 0.07 0.06 0.05 0.05 0.05 0.04 0.03 0.04 0.05 0.06 0.07 0.05 0.04 0.04 0.02
0.05 0.05 0.06 0.07 0.09 0.11 0.12 0.16 0.15 0.10 0.07 0.07 0.07 0.06 0.05 0.06 0.07 0.08 0.06 0.04 0.02 0.01 0.01 0.01 0.02 0.02 0.03 0.05 0.06 0.06 0.07 0.07 0.08 0.07 0.04 0.03 0.03 0.05 0.06 0.04 0.03 0.02 0.02
0.05 0.08 0.11 0.11 0.11 0.16 0.18 0.12 0.13 0.14 0.11 0.09 0.07 0.06 0.04 0.04 0.04 0.04 0.03 0.03 0.03 0.01 0.01 0.01 0.02 0.02 0.03 0.04 0.05 0.08 0.09 0.09 0.07 0.05 0.04 0.02 0.03 0.04 0.03 0.04 0.04 0.03 0.02
0.08 0.10 0.08 0.06 0.06 0.09 0.10 0.08 0.06 0.07 0.08 0.06 0.06 0.05 0.04 0.04 0.04 0.03 0.03 0.03 0.02 0.02 0.02 0.02 0.03 0.03 0.04 0.04 0.05 0.07 0.09 0.08 0.06 0.06 0.04 0.04 0.06 0.05 0.03 0.03 0.04 0.04 0.04
0.05 0.04 0.05 0.06 0.05 0.06 0.06 0.08 0.07 0.07 0.08 0.06 0.05 0.04 0.04 0.04 0.03 0.02 0.02 0.03 0.03 0.03 0.03 0.03 0.03 0.03 0.03 0.03 0.03 0.05 0.06 0.08 0.08 0.07 0.06 0.06 0.05 0.04 0.04 0.04 0.05 0.06 0.06
0.02 0.02 0.04 0.07 0.06 0.06 0.05 0.05 0.06 0.04 0.05 0.06 0.05 0.04 0.03 0.04 0.04 0.02 0.02 0.03 0.03 0.02 0.03 0.03 0.03 0.02 0.02 0.03 0.04 0.06 0.08 0.09 0.08 0.06 0.06 0.06 0.05 0.05 0.05 0.05 0.04 0.03 0.03
0.02 0.02 0.03 0.03 0.04 0.05 0.05 0.03 0.02 0.02 0.04 0.05 0.04 0.04 0.03 0.02 0.02 0.02 0.03 0.04 0.04 0.04 0.05 0.06 0.06 0.06 0.07 0.08 0.09 0.09 0.09 0.09 0.07 0.05 0.05 0.05 0.07 0.08 0.08 0.05 0.03 0.02 0.02
0.02 0.02 0.02 0.02 0.03 0.04 0.05 0.04 0.02 0.01 0.02 0.04 0.07 0.08 0.05 0.03 0.02 0.03 0.03 0.03 0.04 0.06 0.07 0.07 0.07 0.09 0.12 0.15 0.14 0.11 0.09 0.08 0.06 0.07 0.09 0.11 0.11 0.08 0.05 0.03 0.03 0.02 0.02
0.02 0.02 0.02 0.02 0.03 0.04 0.05 0.05 0.02 0.02 0.02 0.02 0.04 0.07 0.06 0.03 0.03 0.04 0.05 0.05 0.06 0.07 0.07 0.07 0.07 0.10 0.10 0.10 0.10 0.10 0.08 0.09 0.12 0.13 0.11 0.10 0.08 0.05 0.03 0.03 0.03 0.02 0.01
0.03 0.02 0.02 0.03 0.04 0.05 0.05 0.05 0.03 0.03 0.03 0.02 0.01 0.01 0.03 0.04 0.06 0.07 0.07 0.07 0.07 0.06 0.07 0.07 0.07 0.06 0.05 0.05 0.05 0.06 0.08 0.11 0.11 0.09 0.07 0.06 0.05 0.05 0.05 0.03 0.02 0.02 0.01
0.02 0.02 0.02 0.03 0.05 0.06 0.07 0.07 0.05 0.03 0.03 0.02 0.01 0.02 0.03 0.04 0.06 0.07 0.08 0.07 0.06 0.06 0.06 0.05 0.04 0.04 0.02 0.03 0.04 0.04 0.03 0.05 0.06 0.06 0.06 0.06 0.06 0.06 0.04 0.03 0.02 0.02 0.02
0.02 0.02 0.03 0.04 0.06 0.08 0.11 0.10 0.07 0.05 0.03 0.03 0.03 0.05 0.05 0.06 0.08 0.10 0.09 0.07 0.05 0.04 0.04 0.04 0.03 0.02 0.02 0.03 0.03 0.03 0.02 0.02 0.04 0.04 0.04 0.04 0.04 0.05 0.03 0.02 0.02 0.02 0.03
0.02 0.03 0.04 0.04 0.06 0.09 0.13 0.13 0.10 0.06 0.03 0.03 0.04 0.05 0.03 0.03 0.05 0.10 0.15 0.11 0.06 0.03 0.03 0.04 0.03 0.02 0.02 0.02 0.02 0.02 0.02 0.02 0.03 0.03 0.02 0.03 0.04 0.05 0.04 0.02 0.02 0.02 0.02
0.03 0.03 0.03 0.03 0.04 0.05 0.07 0.09 0.07 0.06 0.03 0.02 0.02 0.02 0.01 0.02 0.03 0.08 0.11 0.08 0.05 0.03 0.02 0.03 0.03 0.02 0.03 0.03 0.03 0.03 0.03 0.04 0.04 0.03 0.02 0.03 0.04 0.04 0.04 0.03 0.02 0.02 0.01
0.03 0.04 0.03 0.04 0.04 0.04 0.05 0.05 0.05 0.04 0.03 0.02 0.02 0.02 0.01 0.01 0.03 0.06 0.12 0.05 0.02 0.03 0.03 0.03 0.03 0.04 0.05 0.05 0.04 0.04 0.05 0.04 0.05 0.04 0.04 0.04 0.04 0.04 0.03 0.02 0.01 0.01 0.01
0.05 0.05 0.06 0.06 0.04 0.04 0.05 0.04 0.03 0.03 0.02 0.02 0.02 0.02 0.02 0.03 0.03 0.06 0.10 0.07 0.03 0.03 0.03 0.03 0.05 0.06 0.07 0.07 0.06 0.04 0.04 0.04 0.05 0.05 0.04 0.03 0.03 0.03 0.03 0.02 0.02 0.02 0.01
0.05 0.07 0.08 0.05 0.04 0.05 0.06 0.06 0.04 0.03 0.02 0.02 0.01 0.01 0.02 0.03 0.03 0.04 0.03 0.03 0.03 0.03 0.03 0.03 0.03 0.03 0.04 0.07 0.07 0.05 0.05 0.06 0.07 0.06 0.04 0.03 0.04 0.04 0.03 0.03 0.03 0.03 0.02
MSLP
1008.58 1009.03 1009.36 1009.53 1009.54 1009.40 1009.16 1008.88 1008.63 1008.47 1008.43 1008.51 1008.71 1009.00 1009.36 1009.76 1010.16 1010.58 1010.99 1011.43 1011.89 1012.39 1012.92 1013.49 1014.08 1014.66 1015.21 1015.72 1016.17 1016.56 1016.89 1017.16 1017.38 1017.54 1017.66 1017.72 1017.72 1017.65 1017.51 1017.31 1017.08 1016.85 1016.64
1008.47 1009.03 1009.46 1009.70 1009.74 1009.60 1009.33 1009.02 1008.74 1008.56 1008.51 1008.60 1008.82 1009.14 1009.50 1009.89 1010.27 1010.64 1011.02 1011.41 1011.84 1012.32 1012.85 1013.43 1014.03 1014.62 1015.18 1015.70 1016.15 1016.54 1016.88 1017.18 1017.43 1017.66 1017.83 1017.95 1017.98 1017.93 1017.77 1017.53 1017.23 1016.89 1016.57
1008.24 1008.90 1009.44 1009.78 1009.89 1009.79 1009.54 1009.23 1008.95 1008.77 1008.72 1008.83 1009.07 1009.40 1009.78 1010.17 1010.54 1010.89 1011.23 1011.59 1011.99 1012.44 1012.95 1013.50 1014.07 1014.64 1015.17 1015.64 1016.06 1016.43 1016.77 1017.07 1017.37 1017.64 1017.89 1018.07 1018.17 1018.16 1018.03 1017.77 1017.42 1017.01 1016.59
1007.91 1008.67 1009.32 1009.77 1009.97 1009.95 1009.76 1009.49 1009.23 1009.07 1009.04 1009.17 1009.43 1009.78 1010.17 1010.56 1010.93 1011.28 1011.60 1011.94 1012.31 1012.73 1013.20 1013.70 1014.21 1014.70 1015.16 1015.56 1015.91 1016.23 1016.54 1016.85 1017.17 1017.50 1017.81 1018.07 1018.25 1018.30 1018.21 1017.97 1017.60 1017.15 1016.66
1007.54 1008.38 1009.13 1009.69 1010.00 1010.07 1009.95 1009.74 1009.53 1009.40 1009.41 1009.56 1009.84 1010.21 1010.62 1011.03 1011.40 1011.75 1012.07 1012.40 1012.74 1013.12 1013.54 1013.97 1014.39 1014.79 1015.15 1015.45 1015.72 1015.97 1016.23 1016.52 1016.85 1017.22 1017.59 1017.93 1018.18 1018.31 1018.27 1018.07 1017.71 1017.25 1016.72
1007.19 1008.08 1008.91 1009.56 1009.96 1010.12 1010.09 1009.95 1009.79 1009.71 1009.75 1009.93 1010.23 1010.62 1011.05 1011.47 1011.86 1012.22 1012.54 1012.86 1013.18 1013.53 1013.88 1014.24 1014.58 1014.88 1015.12 1015.33 1015.50 1015.67 1015.87 1016.13 1016.46 1016.84 1017.25 1017.64 1017.96 1018.15 1018.17 1018.02 1017.70 1017.24 1016.71
1006.94 1007.85 1008.72 1009.42 1009.89 1010.12 1010.15 1010.08 1009.98 1009.95 1010.02 1010.23 1010.55 1010.95 1011.39 1011.82 1012.23 1012.59 1012.92 1013.23 1013.54 1013.85 1014.15 1014.45 1014.71 1014.92 1015.07 1015.18 1015.27 1015.37 1015.51 1015.73 1016.03 1016.41 1016.82 1017.23 1017.57 1017.80 1017.87 1017.77 1017.50 1017.08 1016.58
1006.84 1007.74 1008.61 1009.32 1009.81 1010.08 1010.16 1010.13 1010.09 1010.09 1010.20 1010.43 1010.76 1011.17 1011.61 1012.04 1012.44 1012.80 1013.12 1013.42 1013.71 1014.00 1014.27 1014.52 1014.72 1014.88 1014.97 1015.02 1015.05 1015.10 1015.19 1015.35 1015.61 1015.94 1016.32 1016.71 1017.05 1017.28 1017.38 1017.31 1017.09 1016.74 1016.28
1006.94 1007.79 1008.61 1009.28 1009.76 1010.03 1010.13 1010.14 1010.13 1010.17 1010.30 1010.54 1010.88 1011.27 1011.69 1012.10 1012.47 1012.81 1013.11 1013.39 1013.66 1013.93 1014.18 1014.41 1014.59 1014.72 1014.80 1014.83 1014.83 1014.84 1014.89 1015.01 1015.20 1015.47 1015.78 1016.11 1016.40 1016.61 1016.71 1016.67 1016.49 1016.20 1015.82
1007.26 1008.03 1008.77 1009.36 1009.78 1010.02 1010.11 1010.13 1010.15 1010.21 1010.37 1010.61 1010.93 1011.29 1011.67 1012.03 1012.35 1012.64 1012.90 1013.14 1013.38 1013.63 1013.87 1014.09 1014.28 1014.43 1014.52 1014.56 1014.57 1014.57 1014.60 1014.67 1014.80 1014.98 1015.21 1015.45 1015.66 1015.82 1015.89 1015.86 1015.73 1015.51 1015.21
1007.80 1008.48 1009.10 1009.59 1009.91 1010.09 1010.16 1010.18 1010.21 1010.30 1010.46 1010.70 1010.99 1011.31 1011.62 1011.90 1012.14 1012.35 1012.53 1012.71 1012.91 1013.12 1013.35 1013.59 1013.80 1013.98 1014.11 1014.19 1014.23 1014.25 1014.27 1014.30 1014.37 1014.47 1014.59 1014.73 1014.85 1014.94 1014.97 1014.95 1014.86 1014.71 1014.51
1008.52 1009.09 1009.58 1009.95 1010.17 1010.29 1010.32 1010.34 1010.38 1010.48 1010.65 1010.87 1011.13 1011.38 1011.61 1011.79 1011.93 1012.02 1012.11 1012.20 1012.33 1012.50 1012.71 1012.94 1013.18 1013.40 1013.58 1013.71 1013.79 1013.83 1013.85 1013.85 1013.86 1013.88 1013.91 1013.95 1013.99 1014.01 1014.02 1013.99 1013.95 1013.88 1013.79
1009.39 1009.84 1010.20 1010.44 1010.57 1010.61 1010.62 1010.63 1010.69 1010.80 1010.98 1011.19 1011.40 1011.59 1011.72 1011.78 1011.79 1011.76 1011.72 1011.71 1011.75 1011.85 1012.02 1012.24 1012.48 1012.72 1012.94 1013.11 1013.23 1013.29 1013.31 1013.30 1013.26 1013.22 1013.18 1013.15 1013.11 1013.09 1013.08 1013.07 1013.07 1013.08 1013.10
1010.31 1010.66 1010.90 1011.03 1011.07 1011.06 1011.05 1011.07 1011.15 1011.29 1011.48 1011.67 1011.84 1011.95 1011.98 1011.93 1011.80 1011.64 1011.47 1011.34 1011.27 1011.29 1011.40 1011.57 1011.80 1012.04 1012.26 1012.45 1012.58 1012.65 1012.66 1012.63 1012.57 1012.49 1012.41 1012.33 1012.26 1012.22 1012.21 1012.23 1012.29 1012.37 1012.48
1011.23 1011.48 1011.62 1011.67 1011.65 1011.62 1011.61 1011.66 1011.77 1011.94 1012.13 1012.31 1012.44 1012.49 1012.43 1012.27 1012.02 1011.73 1011.43 1011.18 1011.01 1010.93 1010.95 1011.06 1011.23 1011.43 1011.62 1011.79 1011.90 1011.96 1011.96 1011.92 1011.84 1011.74 1011.64 1011.55 1011.48 1011.45 1011.46 1011.52 1011.63 1011.78 1011.97
1012.08 1012.26 1012.34 1012.33 1012.29 1012.26 1012.27 1012.35 1012.51 1012.70 1012.91 1013.09 1013.19 1013.18 1013.04 1012.79 1012.45 1012.05 1011.66 1011.30 1011.03 1010.86 1010.78 1010.81 1010.89 1011.01 1011.14 1011.24 1011.31 1011.33 1011.30 1011.23 1011.14 1011.04 1010.95 1010.87 1010.82 1010.82 1010.86 1010.97 1011.12 1011.32 1011.55
1012.82 1012.96 1012.99 1012.97 1012.94 1012.94 1012.99 1013.12 1013.32 1013.55 1013.78 1013.95 1014.03 1013.98 1013.80 1013.48 1013.08 1012.62 1012.15 1011.72 1011.37 1011.11 1010.95 1010.87 1010.86 1010.88 1010.90 1010.91 1010.90 1010.85 1010.78 1010.68 1010.58 1010.48 1010.40 1010.35 1010.34 1010.37 1010.45 1010.59 1010.76 1010.98 1011.22
1013.43 1013.55 1013.59 1013.59 1013.59 1013.64 1013.75 1013.93 1014.17 1014.43 1014.67 1014.84 1014.91 1014.84 1014.63 1014.30 1013.87 1013.38 1012.89 1012.43 1012.03 1011.72 1011.48 1011.31 1011.18 1011.09 1011.00 1010.90 1010.78 1010.65 1010.51 1010.37 1010.24 1010.15 1010.08 1010.06 1010.07 1010.13 1010.23 1010.37 1010.54 1010.73 1010.95
1013.91 1014.05 1014.12 1014.17 1014.23 1014.34 1014.51 1014.74 1015.01 1015.29 1015.54 1015.71 1015.77 1015.70 1015.49 1015.17 1014.75 1014.29 1013.82 1013.37 1012.96 1012.61 1012.32 1012.07 1011.86 1011.65 1011.44 1011.22 1010.99 1010.76 1010.54 1010.35 1010.19 1010.08 1010.01 1009.99 1010.02 1010.08 1010.17 1010.28 1010.41 1010.55 1010.70
1014.32 1014.50 1014.62 1014.73 1014.86 1015.03 1015.25 1015.52 1015.81 1016.10 1016.34 1016.50 1016.56 1016.50 1016.31 1016.03 1015.66 1015.26 1014.84 1014.44 1014.06 1013.71 1013.40 1013.10 1012.80 1012.49 1012.17 1011.84 1011.50 1011.17 1010.87 1010.62 1010.41 1010.27 1010.18 1010.15 1010.15 1010.18 1010.23 1010.29 1010.34 1010.40 1010.44
1014.70 1014.93 1015.11 1015.29 1015.48 1015.70 1015.96 1016.24 1016.54 1016.81 1017.03 1017.18 1017.24 1017.19 1017.04 1016.81 1016.53 1016.20 1015.87 1015.54 1015.21 1014.90 1014.59 1014.26 1013.90 1013.52 1013.11 1012.68 1012.25 1011.83 1011.45 1011.13 1010.87 1010.67 1010.55 1010.47 1010.43 1010.41 1010.39 1010.36 1010.32 1010.26 1010.19
1015.11 1015.38 1015.62 1015.85 1016.09 1016.34 1016.61 1016.89 1017.16 1017.40 1017.60 1017.72 1017.77 1017.74 1017.64 1017.48 1017.27 1017.05 1016.81 1016.57 1016.32 1016.05 1015.76 1015.42 1015.04 1014.61 1014.13 1013.63 1013.12 1012.63 1012.18 1011.79 1011.48 1011.23 1011.04 1010.91 1010.80 1010.70 1010.59 1010.47 1010.32 1010.14 1009.95
1015.57 1015.88 1016.16 1016.42 1016.68 1016.94 1017.19 1017.44 1017.67 1017.86 1018.01 1018.11 1018.15 1018.14 1018.08 1017.99 1017.87 1017.74 1017.60 1017.45 1017.28 1017.07 1016.81 1016.48 1016.09 1015.63 1015.12 1014.57 1014.01 1013.47 1012.97 1012.53 1012.16 1011.86 1011.61 1011.41 1011.23 1011.04 1010.85 1010.62 1010.36 1010.08 1009.78
1016.11 1016.43 1016.72 1016.99 1017.24 1017.48 1017.69 1017.89 1018.05 1018.19 1018.29 1018.35 1018.38 1018.38 1018.37 1018.34 1018.30 1018.27 1018.22 1018.15 1018.04 1017.89 1017.66 1017.36 1016.97 1016.51 1015.98 1015.42 1014.84 1014.27 1013.75 1013.28 1012.87 1012.52 1012.22 1011.96 1011.70 1011.44 1011.16 1010.85 1010.50 1010.13 1009.75
1016.73 1017.03 1017.31 1017.56 1017.77 1017.96 1018.11 1018.24 1018.33 1018.40 1018.44 1018.47 1018.48 1018.50 1018.52 1018.55 1018.59 1018.62 1018.65 1018.66 1018.61 1018.50 1018.31 1018.03 1017.66 1017.21 1016.69 1016.14 1015.56 1015.00 1014.47 1014.00 1013.57 1013.20 1012.86 1012.55 1012.25 1011.93 1011.58 1011.20 1010.78 1010.35 1009.91
1017.39 1017.67 1017.91 1018.11 1018.27 1018.39 1018.47 1018.51 1018.53 1018.52 1018.51 1018.51 1018.51 1018.54 1018.59 1018.67 1018.76 1018.86 1018.95 1019.01 1019.01 1018.94 1018.78 1018.53 1018.18 1017.75 1017.27 1016.74 1016.20 1015.67 1015.17 1014.71 1014.29 1013.92 1013.57 1013.23 1012.89 1012.54 1012.15 1011.73 1011.27 1010.80 1010.32
Thickness
5789 5789 5789 5786 5782 5778 5775 5772 5769 5767 5764 5759 5754 5751 5748 5747 5746 5745 5743 5741 5739 5737 5735 5732 5730 5728 5727 5725 5724 5723 5722 5720 5721 5719 5717 5719 5721 5721 5722 5722 5723 5723 5724
5782 5782 5782 5781 5778 5775 5772 5768 5766 5764 5761 5758 5754 5751 5747 5745 5743 5742 5740 5738 5736 5734 5732 5728 5726 5725 5723 5721 5720 5719 5716 5715 5715 5711 5707 5705 5707 5712 5716 5716 5717 5718 5719
5778 5778 5776 5775 5774 5771 5769 5767 5763 5761 5758 5756 5752 5747 5743 5740 5737 5736 5734 5733 5732 5730 5727 5724 5723 5721 5719 5717 5716 5715 5712 5709 5709 5710 5704 5698 5696 5700 5706 5709 5711 5712 5713
5776 5775 5774 5770 5769 5769 5768 5765 5761 5757 5754 5752 5748 5742 5737 5732 5732 5731 5730 5729 5727 5725 5723 5721 5719 5717 5715 5713 5712 5711 5709 5706 5703 5704 5704 5703 5700 5695 5694 5701 5705 5707 5708
5771 5770 5769 5767 5765 5764 5763 5760 5756 5753 5750 5748 5745 5739 5734 5731 5729 5727 5725 5723 5723 5721 5719 5717 5715 5713 5711 5709 5707 5706 5705 5703 5701 5699 5698 5697 5696 5695 5691 5690 5695 5698 5702
5767 5764 5763 5762 5760 5758 5756 5753 5749 5746 5745 5743 5740 5736 5731 5727 5724 5721 5719 5718 5717 5716 5714 5712 5710 5709 5707 5705 5703 5702 5700 5699 5698 5697 5696 5694 5691 5689 5688 5686 5687 5689 5694
5760 5756 5754 5752 5751 5750 5748 5747 5744 5740 5739 5737 5735 5732 5729 5726 5722 5719 5716 5713 5711 5710 5709 5708 5706 5704 5702 5701 5699 5697 5696 5695 5694 5693 5692 5692 5691 5690 5688 5685 5683 5684 5687
5751 5749 5747 5746 5744 5743 5742 5740 5738 5735 5733 5731 5729 5726 5724 5722 5719 5716 5713 5710 5708 5706 5705 5704 5702 5700 5698 5697 5695 5693 5691 5690 5690 5690 5689 5688 5688 5688 5687 5684 5681 5678 5679
5743 5741 5740 5739 5737 5736 5735 5735 5733 5730 5728 5726 5724 5721 5719 5717 5714 5711 5709 5706 5704 5702 5701 5699 5697 5696 5694 5692 5690 5688 5687 5686 5685 5684 5684 5684 5684 5684 5684 5683 5681 5676 5672
5736 5735 5733 5732 5730 5729 5729 5729 5727 5725 5723 5721 5718 5717 5714 5712 5709 5707 5704 5702 5700 5698 5696 5695 5693 5691 5689 5687 5686 5684 5683 5681 5680 5679 5679 5679 5679 5679 5680 5680 5679 5677 5674
5729 5728 5726 5725 5724 5724 5723 5723 5721 5719 5716 5714 5712 5710 5708 5707 5704 5702 5700 5698 5695 5693 5692 5690 5688 5687 5685 5683 5681 5680 5678 5677 5676 5675 5674 5674 5674 5674 5674 5675 5674 5674 5673
5723 5721 5719 5718 5717 5716 5715 5714 5713 5711 5710 5708 5705 5704 5703 5701 5698 5697 5695 5693 5690 5688 5687 5685 5684 5682 5680 5678 5676 5675 5674 5673 5671 5671 5670 5669 5669 5669 5669 5669 5669 5669 5669
5715 5714 5713 5712 5711 5711 5709 5708 5707 5705 5703 5701 5699 5697 5696 5695 5693 5692 5690 5688 5685 5684 5682 5680 5679 5677 5676 5675 5673 5672 5671 5669 5668 5667 5666 5666 5665 5665 5665 5665 5665 5665 5666
5710 5708 5707 5706 5705 5705 5703 5702 5700 5699 5698 5696 5694 5692 5691 5690 5688 5687 5686 5684 5682 5679 5677 5675 5674 5673 5672 5671 5670 5669 5668 5666 5665 5664 5664 5664 5663 5663 5662 5662 5661 5661 5660
5704 5703 5701 5700 5700 5698 5697 5696 5695 5693 5692 5689 5688 5687 5687 5686 5684 5682 5681 5679 5678 5676 5674 5671 5670 5669 5668 5667 5666 5665 5664 5662 5661 5661 5661 5661 5661 5662 5661 5660 5658 5657 5655
5699 5698 5698 5696 5694 5694 5692 5690 5689 5688 5686 5684 5683 5683 5682 5681 5679 5678 5676 5675 5673 5672 5670 5668 5667 5666 5666 5665 5663 5662 5660 5659 5658 5657 5658 5658 5658 5659 5658 5658 5658 5656 5653
5693 5693 5692 5690 5689 5688 5687 5684 5683 5682 5680 5679 5678 5677 5676 5675 5674 5674 5672 5670 5669 5668 5667 5665 5664 5663 5663 5663 5661 5660 5658 5657 5655 5654 5654 5655 5656 5655 5655 5655 5654 5653 5653
5688 5687 5686 5685 5683 5682 5680 5679 5677 5675 5673 5672 5671 5671 5671 5670 5670 5668 5667 5666 5665 5664 5663 5662 5661 5660 5660 5659 5659 5658 5655 5653 5652 5651 5651 5651 5651 5652 5651 5651 5649 5649 5649
5684 5682 5681 5680 5677 5675 5674 5672 5670 5668 5667 5666 5665 5666 5665 5665 5664 5663 5662 5662 5661 5660 5660 5659 5658 5657 5657 5657 5655 5654 5651 5650 5649 5649 5649 5648 5648 5649 5649 5647 5645 5644 5645
5678 5676 5674 5673 5670 5669 5668 5665 5663 5662 5661 5661 5661 5661 5660 5660 5659 5659 5659 5659 5658 5658 5657 5656 5655 5654 5653 5653 5651 5650 5647 5646 5645 5645 5645 5645 5645 5645 5644 5643 5641 5639 5640
5671 5670 5668 5666 5664 5664 5662 5660 5658 5656 5657 5658 5657 5656 5656 5655 5656 5655 5655 5654 5654 5653 5652 5652 5651 5650 5650 5649 5648 5646 5644 5643 5642 5641 5641 5642 5642 5642 5641 5640 5639 5638 5637
5664 5663 5660 5659 5659 5659 5657 5655 5652 5653 5653 5653 5651 5651 5651 5651 5652 5650 5650 5650 5648 5647 5647 5646 5646 5646 5646 5646 5645 5643 5642 5641 5640 5639 5638 5638 5638 5638 5637 5636 5636 5634 5633
5655 5655 5653 5652 5652 5652 5651 5648 5648 5648 5648 5647 5646 5645 5646 5646 5646 5645 5645 5644 5643 5642 5641 5641 5641 5641 5642 5642 5642 5640 5639 5638 5637 5637 5636 5636 5635 5634 5633 5633 5632 5630 5628
5647 5647 5646 5645 5645 5645 5646 5644 5644 5643 5642 5641 5640 5640 5640 5640 5641 5641 5640 5640 5639 5638 5637 5637 5637 5637 5637 5637 5637 5636 5635 5635 5634 5633 5632 5632 5631 5630 5629 5628 5627 5626 5624
5640 5640 5640 5639 5639 5639 5639 5639 5639 5638 5637 5636 5635 5634 5635 5635 5635 5635 5635 5635 5636 5635 5634 5634 5634 5633 5633 5635 5634 5632 5632 5631 5629 5628 5626 5625 5624 5623 5623 5622 5622 5621 5620
5632 5633 5633 5633 5633 5633 5633 5633 5633 5633 5631 5630 5630 5629 5629 5629 5629 5628 5628 5630 5631 5633 5633 5633 5632 5632 5633 5633 5631 5630 5630 5628 5626 5623 5621 5620 5619 5619 5618 5617 5617 5617 5616